EW2835 Weather Reports


time (UTC)temp
F
wind
direction
speed
knots
gust
knots
rain 1hr
in
rain 24hr
in
rain mn
in
humidity
%
barometer
mb
20260508014559 45 172 0.0 0.0 0.00 0.01 0.00 96 1018.7
20260508013058 45 172 0.0 0.0 0.00 0.01 0.00 96 1018.7
20260508011557 45 172 0.0 0.0 0.00 0.01 0.00 96 1018.6
20260508010056 45 172 0.0 0.0 0.00 0.01 0.00 96 1018.5
20260508004559 45 172 0.0 0.0 0.00 0.01 0.00 96 1018.5
20260508003055 45 172 0.0 0.0 0.00 0.01 0.00 96 1018.6
20260508001555 45 172 0.0 0.0 0.00 0.01 0.00 96 1018.6
20260508000058 45 172 0.0 0.0 0.00 0.01 0.00 96 1018.7
20260507234558 45 172 0.0 0.9 0.00 0.01 0.00 96 1018.7
20260507233112 45 172 0.0 0.9 0.00 0.01 0.00 96 1018.6
20260507231552 45 172 0.0 0.9 0.00 0.01 0.00 96 1018.6
20260507230052 45 172 0.0 1.7 0.00 0.01 0.00 96 1018.7
20260507224550 45 198 0.0 0.0 0.00 0.01 0.00 95 1018.7
20260507223058 45 198 0.0 0.0 0.00 0.01 0.00 95 1018.6
20260507221547 46 198 0.0 0.0 0.00 0.01 0.00 95 1018.5
20260507220043 46 198 0.0 0.0 0.00 0.01 0.00 95 1018.4
20260507214543 46 198 0.0 0.0 0.00 0.01 0.01 95 1018.4
20260507213042 46 198 0.0 0.0 0.00 0.01 0.01 95 1018.3
20260507211548 46 198 0.0 0.0 0.00 0.01 0.01 95 1018.3
20260507210057 46 198 0.0 0.0 0.00 0.01 0.01 95 1018.2
20260507204543 46 198 0.0 0.0 0.00 0.01 0.01 95 1018.2
20260507203037 46 198 0.0 0.0 0.00 0.01 0.01 94 1018.0
20260507201533 46 198 0.0 0.0 0.00 0.01 0.01 94 1017.8
20260507200034 46 198 0.0 0.0 0.00 0.01 0.01 94 1017.7
20260507194545 47 198 0.0 0.0 0.00 0.01 0.01 94 1017.6
20260507193030 47 198 0.0 0.0 0.00 0.01 0.01 94 1017.5
20260507191527 47 198 0.0 0.0 0.00 0.01 0.01 94 1017.4
20260507190039 47 198 0.0 0.9 0.00 0.01 0.01 94 1017.3
20260507184532 47 198 0.0 0.0 0.00 0.01 0.01 93 1017.1
20260507183023 47 198 0.0 0.9 0.00 0.01 0.01 93 1016.9
20260507181524 48 198 0.0 0.0 0.00 0.01 0.01 93 1016.9
20260507180021 48 198 0.0 0.9 0.00 0.01 0.01 92 1016.8
20260507174519 48 198 0.0 2.6 0.00 0.01 0.01 92 1016.8
20260507173035 48 160 0.0 2.6 0.01 0.01 0.01 91 1016.6
20260507171515 48 169 0.0 1.7 0.01 0.01 0.01 90 1016.5
20260507170020 48 166 0.0 3.5 0.01 0.01 0.01 89 1016.4
20260507164521 49 173 0.9 3.5 0.01 0.01 0.01 88 1016.3
20260507163011 49 147 0.0 0.9 0.00 0.00 0.00 87 1016.3
20260507160043 50 149 0.0 1.7 0.00 0.00 0.00 85 1016.1
20260507154541 50 86 0.9 2.6 0.00 0.00 0.00 83 1016.1
20260507153042 50 160 0.0 2.6 0.00 0.00 0.00 82 1015.9
20260507151538 50 109 0.0 2.6 0.00 0.00 0.00 80 1015.8
20260507150041 50 76 0.9 2.6 0.00 0.00 0.00 80 1015.7
20260507144538 50 94 0.0 1.7 0.00 0.00 0.00 79 1015.7
20260507143040 49 68 0.0 2.6 0.00 0.00 0.00 80 1015.6
20260507141535 49 59 0.9 7.8 0.00 0.00 0.00 79 1015.6
20260507140038 49 105 1.7 3.5 0.00 0.00 0.00 79 1015.5
20260507134532 49 63 1.7 4.3 0.00 0.00 0.00 79 1015.4
20260507133032 49 98 3.5 7.8 0.00 0.00 0.00 80 1015.4
20260507131531 49 91 2.6 7.8 0.00 0.00 0.00 79 1015.3
20260507130037 49 53 2.6 5.2 0.00 0.00 0.00 80 1015.2
20260507124535 49 50 2.6 5.2 0.00 0.00 0.00 80 1015.1
20260507123023 48 56 4.3 10.4 0.00 0.00 0.00 80 1015.0
20260507121519 48 109 1.7 8.7 0.00 0.00 0.00 82 1014.9
20260507120018 48 86 0.9 7.0 0.00 0.00 0.00 83 1014.9
20260507114517 48 34 2.6 7.0 0.00 0.00 0.00 83 1014.9
20260507113034 48 8 2.6 7.8 0.00 0.00 0.00 84 1014.8
20260507111514 47 65 1.7 7.8 0.00 0.00 0.00 84 1014.6
20260507110016 47 52 2.6 7.0 0.00 0.00 0.00 85 1014.6
20260507104514 47 90 2.6 7.8 0.00 0.00 0.00 86 1014.5
20260507103017 47 344 1.7 7.0 0.00 0.00 0.00 85 1014.4
20260507101516 47 36 1.7 8.7 0.00 0.00 0.00 84 1014.3
20260507100007 47 2 0.9 7.0 0.00 0.00 0.00 86 1014.2
20260507094505 47 59 1.7 7.0 0.00 0.02 0.00 85 1014.1
20260507093002 47 55 2.6 8.7 0.00 0.02 0.00 85 1013.8
20260507091503 47 86 0.9 7.8 0.00 0.02 0.00 85 1013.6
20260507090057 47 40 1.7 6.1 0.00 0.02 0.00 85 1013.4
20260507084609 47 86 4.3 8.7 0.00 0.06 0.00 85 1013.3
20260507083055 46 358 2.6 7.0 0.00 0.06 0.00 85 1013.1
20260507081559 46 323 3.5 8.7 0.00 0.06 0.00 86 1012.9
20260507080051 46 48 4.3 9.6 0.00 0.06 0.00 86 1012.7
20260507074555 46 68 3.5 10.4 0.00 0.15 0.00 87 1012.6
20260507073045 45 81 1.7 8.7 0.00 0.15 0.00 88 1012.6
20260507071543 45 5 0.9 7.8 0.00 0.15 0.00 88 1012.4
20260507070045 45 71 4.3 8.7 0.00 0.15 0.00 88 1012.3
20260507064540 45 360 2.6 8.7 0.00 0.28 0.00 89 1012.2
20260507063041 45 69 1.7 7.8 0.00 0.28 0.00 89 1012.1
20260507061537 45 76 3.5 7.8 0.00 0.28 0.00 89 1011.9
20260507060033 45 23 3.5 8.7 0.00 0.28 0.00 89 1011.7
20260507054529 45 356 2.6 8.7 0.00 0.34 0.00 89 1011.6
20260507053027 45 28 2.6 8.7 0.00 0.34 0.00 89 1011.5
20260507051524 45 76 2.6 9.6 0.00 0.34 0.00 89 1011.4
20260507050028 45 116 0.9 7.8 0.00 0.34 0.00 89 1011.2
20260507044520 45 76 2.6 7.0 0.00 0.38 0.00 89 1011.1
20260507043023 45 46 1.7 8.7 0.00 0.38 0.00 89 1010.8
20260507041515 45 27 1.7 7.8 0.00 0.38 0.00 90 1010.9
20260507040013 44 76 0.9 7.0 0.00 0.38 0.00 90 1010.7
20260507034520 44 95 3.5 8.7 0.00 0.44 0.00 90 1010.6
20260507033012 44 40 3.5 9.6 0.00 0.44 0.00 90 1010.4
20260507031507 44 61 3.5 8.7 0.00 0.44 0.00 90 1010.5
20260507030007 44 86 4.3 12.2 0.00 0.44 0.00 90 1010.4
20260507024503 44 102 4.3 10.4 0.00 0.54 0.00 90 1010.2
20260507023110 44 70 3.5 9.6 0.00 0.54 0.00 90 1010.2
20260507021557 44 52 4.3 9.6 0.00 0.54 0.00 90 1010.2